SCP
0 0 0 0 0 0 0 0 0 0 -0 -0 -0 0 0 0 -0 -0 -0 0 0 -0 -0 0 -0 0 0 0 0 0 0 0 0 0 0 0 0 0 0 -0 -0 0 0 -0
-0 -0 0 0 0 0 0 0 0 0 0 0 0 -0 0 0 -0 -0 -0 -0 -0 -0 -0 -0 -0 -0 -0 -0 0 -0 0 0 0 -0 -0 -0 -0 0 0 0 0 0 0 -0
-0 -0 0 0 0 0 0 0 0 0 0 0 0 0 0 0 -0 -0 -0 -0 -0 -0 -0 0 -0 -0 -0 -0 -0 -0 -0 -0 -0 -0 0 0 -0 -0 -0 0 -0 -0 0 0
0 -0 0 0 0 0 0 0 0 0 0 0 0 0 0 0 0 0 0 0 0 0 0 0 -0 0 -0 -0 -0 -0 -0 -0 -0 -0 0 0 -0 -0 0 0 -0 -0 0 0
-0 -0 0 0 0 0 0 0 0 0 -0 0 0 0 0 0 0 0 0 0 0 0 0 0 -0 -0 -0 -0 -0 -0 -0 -0 -0 -0 -0 -0 0 0 0 -0 -0 -0 0 0
0 0 0 0 0 0 0 0 0 0 0 0 0 0 0 0 0 0 0 0 0 0 0 -0 0 -0 -0 -0 -0 -0 -0 -0 -0 -0 -0 0 0 0 0 0 0 0 0 0
-0 0 -0 -0 0 0 0 0 0 0 0 0 0 0 0 0 0 0 0 0 0 0 -0 -0 -0 -0 -0 -0 -0 -0 -0 -0 -0 -0 -0 -0 0 0 0 0 0 0 -0 0
-0 -0 0 0 0 0 0 0 0 0 0 0 0 0 0 0 0 0 0 0 0 0 0 0 -0 -0 -0 -0 -0 -0 -0 -0 -0 -0 -0 0 0 0 0 0 0 0 -0 -0
0 0 -0 0 0 0 0 0 0 0 0 0 0 0 0 0 0 0 0 0 0 0 0 0 -0 -0 -0 -0 -0 -0 -0 -0 -0 -0 -0 0 0 0 0 0 0 0 0 0
-0 -0 0 0 0 0 0 0 0 0 0 0 0 0 0 0 0 0 0 0 0 0 0 0 0 -0 -0 -0 0 -0 -0 -0 -0 -0 -0 0 0 0 0 0 0 0 0 0
0 -0 0 -0 -0 0 0 0 0 0 0 0 0 0 0 0 0 0 0 0 0 0 0 0 0 0 -0 -0 -0 -0 -0 -0 -0 0 0 0 0 0 0 0 0 0 0 0
0 -0 -0 -0 0 0 0 0 0 0 0 0 0 0 0 0 0 0 0 0 0 0 0 0 0 0 0 -0 -0 -0 -0 0 0 0 0 0 0 0 -0 0 0 0 0 0
0 0 0 0 0 -0 0 0 0 0 0 0 0 0 0 0 0 0 0 0 1 0 0 0 0 0 0 -0 -0 -0 -0 0 0 0 0 0 0 0 0 0 -0 0 0 0
0 -0 -0 0 -0 0 0 0 0 0 0 0 0 0 0 0 0 0 0 0 0 0 0 0 0 0 0 0 -0 -0 -0 -0 0 0 0 0 0 0 0 0 0 -0 -0 -0
-0 0 -0 -0 -0 0 0 0 0 0 0 0 0 0 0 0 0 0 0 1 1 0 0 0 0 0 0 0 0 -0 0 0 0 0 0 0 0 0 0 0 0 0 0 -0
-0 -0 0 -0 0 -0 -0 0 0 0 0 0 0 0 0 0 0 0 0 0 0 0 0 0 0 0 0 0 0 0 0 -0 0 0 0 0 0 0 0 0 -0 -0 0 -0
-0 -0 0 0 0 0 0 0 0 0 0 0 0 0 0 0 0 0 0 0 0 0 0 0 0 0 0 0 -0 0 0 0 0 0 0 0 0 0 0 0 0 0 -0 -0
-0 0 -0 0 0 0 0 0 0 0 0 0 0 0 0 0 -0 -0 0 0 0 0 0 0 0 0 0 0 0 0 0 0 0 0 0 0 0 0 0 0 0 0 0 0
-0 -0 0 0 0 0 0 0 0 0 0 0 0 0 0 0 0 -0 0 0 0 0 0 0 0 0 0 0 0 0 0 0 0 0 0 0 0 0 0 0 0 0 0 0
-0 -0 0 0 0 0 0 0 0 0 0 0 0 0 0 0 0 0 0 0 0 0 0 0 0 0 0 0 0 0 0 0 0 0 0 0 0 0 0 0 0 0 0 0
-0 -0 0 0 0 0 0 0 0 0 0 0 0 0 0 0 0 0 0 0 0 0 0 0 0 0 0 0 0 0 0 0 0 0 0 0 0 0 0 0 0 0 0 0
-0 -0 -0 -0 -0 -0 0 0 0 0 0 0 0 0 0 0 0 0 0 0 0 0 0 0 0 0 0 0 0 0 0 0 0 0 0 0 0 0 0 0 0 0 0 0
-0 -0 0 -0 -0 0 0 0 0 0 0 0 0 0 0 0 0 0 0 0 0 0 0 0 0 0 0 0 0 0 0 0 0 0 0 0 0 0 0 0 0 0 0 0
0 0 -0 -0 -0 -0 0 0 0 0 0 0 0 0 0 0 0 0 0 0 0 0 0 0 0 0 0 0 0 0 0 0 0 0 0 0 0 0 0 0 0 0 0 0
-0 -0 -0 -0 -0 -0 0 0 0 0 0 0 0 0 0 0 0 0 0 0 0 0 0 0 0 0 0 0 0 0 0 0 0 0 0 0 0 0 0 0 0 0 0 0
-0 -0 -0 -0 -0 -0 -0 0 0 0 0 0 0 0 0 0 0 0 0 0 0 0 0 0 0 0 0 0 0 0 0 0 0 0 0 0 0 0 0 0 0 0 0 0
0 0 0 -0 -0 -0 -0 -0 0 0 0 0 0 0 0 0 0 0 0 0 0 0 0 0 0 0 0 0 0 0 0 0 0 0 0 0 0 0 0 0 0 0 0 0
Wind_Speed_500mb
27 34 34 35 36 26 18 15 5 15 17 37 34 35 37 40 60 54 61 67 75 79 74 67 64 57 50 42 38 39 36 25 19 14 13 14 18 23 33 31 25 20 19 13
29 36 36 40 35 27 30 22 22 35 38 35 40 48 18 55 67 65 66 69 75 79 73 70 64 57 54 45 44 39 39 28 20 15 20 20 20 20 32 24 30 26 21 17
13 23 11 12 27 32 12 15 7 14 13 28 26 19 23 48 69 72 73 74 81 82 74 69 62 54 57 50 43 38 39 33 23 21 21 21 18 19 25 28 33 28 24 19
12 15 9 3 20 16 4 20 26 23 36 37 15 20 39 24 47 64 72 73 82 81 72 66 59 54 54 52 45 38 41 31 22 21 22 25 17 18 25 29 30 27 24 20
7 6 8 7 12 11 13 11 9 21 33 13 23 22 35 21 41 48 80 85 81 76 69 68 63 58 55 56 50 39 40 29 21 24 28 27 20 17 23 24 24 23 23 21
5 9 5 4 27 27 26 13 8 31 10 15 22 4 8 29 30 49 74 77 78 74 71 71 68 62 57 60 50 44 39 33 26 26 27 24 20 19 21 23 22 22 23 23
20 11 5 23 43 63 12 12 46 39 40 21 16 13 14 4 19 68 82 78 74 78 79 75 70 65 59 60 50 42 40 34 32 26 24 19 21 21 22 23 25 25 28 30
5 10 6 44 32 15 18 40 37 50 37 35 35 22 11 9 11 53 79 80 81 83 82 76 70 67 58 57 39 47 44 36 38 32 27 20 16 23 21 21 25 31 32 34
5 4 17 15 22 36 40 35 46 50 28 45 46 39 27 13 26 41 69 76 80 83 82 79 70 65 56 47 45 52 50 41 45 39 30 21 17 24 23 21 27 33 37 39
8 12 18 21 35 45 55 50 48 39 22 55 33 41 45 55 38 46 48 54 69 78 79 78 72 64 43 47 52 52 55 44 49 38 32 18 24 21 21 16 19 29 47 45
5 9 27 11 50 53 56 48 58 64 57 60 34 50 56 58 54 46 23 15 28 63 74 74 72 63 48 51 57 52 59 50 49 42 31 23 28 24 21 10 2 5 30 48
7 23 17 32 46 54 56 60 61 68 65 61 42 49 53 58 56 47 34 27 23 34 63 69 71 65 55 57 60 55 66 59 53 45 35 26 32 31 23 16 9 3 10 19
12 38 35 46 40 44 45 54 60 65 50 39 44 42 46 58 51 30 39 25 20 27 52 63 66 70 61 63 61 61 68 63 57 49 37 34 40 34 25 16 23 20 13 17
31 37 25 25 33 40 40 48 57 42 45 49 42 41 45 56 49 26 28 31 16 12 31 71 65 72 69 68 65 66 65 61 58 52 41 37 44 37 27 29 28 31 24 24
42 33 30 35 35 27 29 39 44 35 41 44 42 41 47 54 48 40 21 22 17 28 20 54 70 69 73 73 71 68 66 63 60 54 45 36 39 42 36 33 30 30 32 33
42 33 21 25 26 24 21 29 40 37 37 35 30 33 39 43 39 38 36 30 21 13 25 57 68 68 76 77 71 66 67 66 61 56 50 41 44 49 46 43 38 38 41 39
35 32 35 32 23 21 20 31 32 34 31 24 24 26 30 36 34 45 37 30 37 33 13 36 73 76 71 74 68 71 68 68 64 61 54 47 50 51 49 50 48 48 46 46
34 32 29 26 21 21 23 31 34 35 23 17 14 17 23 31 29 37 34 34 47 49 39 25 37 65 74 81 78 74 69 67 70 67 59 53 54 56 55 52 53 52 50 50
27 41 37 31 19 16 22 29 28 23 22 9 16 17 22 21 22 40 41 42 50 55 48 33 25 40 64 79 82 79 74 69 70 68 65 58 56 61 65 65 62 56 54 56
26 34 29 31 31 26 26 31 32 30 25 18 15 29 31 28 34 46 53 56 48 42 35 33 27 26 15 33 56 72 77 72 71 71 67 65 64 65 66 69 68 68 62 63
27 31 38 37 33 29 28 28 27 35 35 32 33 47 48 45 46 35 40 50 47 37 36 33 39 30 24 20 17 24 40 64 74 77 70 64 67 68 66 64 67 71 74 73
26 26 28 30 43 36 23 19 22 25 27 32 29 30 37 39 41 45 46 47 40 35 35 37 42 43 28 21 23 19 20 11 42 57 61 66 71 69 76 72 69 71 77 77
18 20 26 30 39 31 33 36 20 23 25 25 24 25 27 27 29 17 25 36 35 35 33 31 31 33 41 40 35 25 18 21 26 25 20 50 70 73 74 75 81 77 71 80
10 13 23 26 34 40 37 39 39 37 30 22 19 18 16 11 14 19 18 18 21 26 31 33 24 22 26 34 33 31 33 34 30 28 23 22 16 17 53 68 59 65 78 85
13 15 17 21 32 41 45 38 44 50 49 44 36 26 21 16 13 12 12 10 9 12 20 24 23 23 25 30 30 30 32 33 30 25 22 20 15 12 10 8 5 9 26 49
13 13 17 24 30 31 38 40 47 47 51 57 55 50 43 35 27 20 18 16 13 12 14 16 21 25 28 28 29 30 31 33 35 35 31 25 21 15 12 7 4 4 3 3
29 22 20 23 27 27 35 36 43 47 50 56 61 61 62 59 54 49 44 41 38 35 33 31 29 26 29 29 32 33 34 37 39 39 38 36 32 29 25 22 21 20 18 21
Wind_Direction_500mb
257 267 273 266 263 246 237 250 249 275 293 273 284 262 270 219 165 155 152 156 162 167 169 167 167 167 169 168 168 172 174 179 192 207 194 178 180 179 178 187 186 175 178 181
275 270 259 245 244 235 237 235 250 256 274 282 267 298 229 178 163 162 161 162 165 170 170 170 168 169 172 173 172 175 185 179 190 194 169 158 165 175 183 185 178 187 192 202
271 336 331 221 236 223 197 181 206 240 237 298 312 357 324 176 166 161 164 164 169 172 173 173 171 168 175 177 176 181 189 185 194 183 173 164 170 181 189 190 185 192 203 216
278 266 235 196 40 63 304 227 213 238 253 262 263 37 329 157 172 164 161 165 173 174 176 175 174 172 173 177 181 184 187 186 187 186 184 173 175 183 188 195 201 207 217 221
257 309 280 268 41 360 356 288 330 299 258 215 55 24 328 5 168 178 170 173 177 178 177 176 176 173 175 180 182 186 183 186 186 195 194 184 190 190 191 191 198 199 193 198
289 285 284 326 330 305 298 246 351 334 20 105 67 78 276 332 164 183 178 178 179 181 181 177 178 176 178 181 185 186 187 187 182 186 190 189 190 192 189 186 190 176 171 165
243 254 209 355 316 286 192 358 322 323 307 85 75 263 261 309 94 181 183 182 184 183 182 180 179 181 181 183 188 190 192 191 189 179 174 173 186 188 180 177 186 178 172 160
245 232 302 359 347 49 322 325 324 324 337 42 49 33 181 136 62 180 182 183 184 183 183 181 181 183 183 185 188 188 193 195 189 179 173 174 192 188 190 193 193 185 177 172
7 291 279 319 345 330 334 349 329 317 352 58 39 31 61 85 74 155 176 177 183 186 182 181 183 187 183 184 183 192 193 195 191 187 182 184 192 183 183 189 190 191 192 183
203 216 336 324 337 341 341 334 319 318 33 64 15 46 47 55 85 120 135 163 180 184 183 183 187 188 187 178 186 192 192 194 190 188 183 180 181 184 181 177 195 198 190 191
259 289 328 260 329 335 320 324 337 352 20 47 36 41 44 42 56 81 138 149 168 190 188 190 190 191 185 178 190 195 195 197 192 190 188 187 188 188 190 189 210 146 184 188
286 325 312 301 316 321 322 338 346 338 2 37 42 37 35 37 43 51 70 73 163 193 200 197 196 194 188 184 192 198 196 198 197 194 193 196 191 188 193 205 216 210 160 180
294 322 305 300 305 303 330 330 328 337 6 26 50 41 34 34 30 56 55 65 119 191 204 205 202 199 194 189 195 200 201 202 200 200 202 195 189 191 198 216 225 215 155 159
336 328 313 323 321 327 330 321 328 349 20 42 36 35 40 37 39 58 16 35 104 144 210 205 207 204 199 195 199 203 206 211 208 207 209 206 203 200 207 191 182 181 169 165
335 323 308 320 319 318 318 325 345 359 20 31 32 32 28 28 38 39 35 47 80 154 198 209 210 212 204 200 200 204 208 213 215 214 214 215 206 206 208 207 207 193 182 177
338 339 333 308 296 304 310 326 345 356 12 25 27 30 21 21 32 35 47 60 85 93 176 203 216 213 209 205 204 208 212 216 218 217 214 212 210 211 213 218 216 211 203 197
353 334 340 330 319 306 316 331 340 345 3 23 12 19 13 17 37 37 39 52 72 57 60 192 205 215 214 211 207 208 211 215 220 219 217 215 214 214 215 219 224 224 224 221
5 10 354 337 334 327 327 344 340 342 356 12 11 4 12 27 46 50 61 68 64 59 62 61 201 208 211 216 214 212 212 213 217 220 220 219 217 221 222 224 227 229 231 231
18 28 31 39 37 14 5 14 25 10 3 345 347 1 0 46 76 70 71 63 53 43 51 53 80 178 203 212 214 216 219 218 218 221 224 224 224 225 230 230 233 234 236 238
37 25 39 38 46 54 63 59 61 63 57 68 72 74 68 71 99 80 71 67 61 50 45 37 54 80 109 208 212 217 222 224 225 226 225 227 227 229 231 236 238 239 241 241
48 47 45 43 36 32 28 48 61 71 68 75 83 81 81 87 85 84 70 64 58 52 50 49 54 62 82 95 150 198 221 230 228 228 231 234 236 236 237 236 241 243 245 247
51 52 65 51 35 51 45 35 48 57 63 71 71 75 82 80 78 72 63 59 54 48 49 57 58 64 84 116 116 134 112 144 228 238 241 243 245 245 240 239 240 243 247 250
62 53 80 65 61 59 57 53 53 54 59 55 55 53 55 57 52 54 47 51 48 48 48 52 51 65 77 99 105 126 129 107 104 120 198 235 245 251 253 253 250 251 254 256
80 81 88 81 58 55 65 60 61 58 60 61 52 40 51 57 47 47 46 38 43 40 46 52 53 51 66 73 72 66 63 74 79 81 94 102 130 204 241 251 256 260 260 262
112 93 79 63 62 57 58 64 64 61 64 67 64 56 42 33 30 20 19 29 25 34 45 56 57 55 53 50 50 50 46 44 43 41 47 55 63 78 83 91 105 254 266 260
127 129 90 68 57 59 54 54 61 61 66 67 66 62 60 61 59 57 56 58 53 51 48 45 47 41 42 40 38 35 31 28 24 22 19 13 6 357 9 358 295 309 62 82
159 161 125 92 64 59 58 61 60 65 70 72 71 68 70 70 69 68 68 67 65 63 60 56 51 45 39 33 30 25 17 12 6 5 3 2 360 355 344 334 326 321 313 301
Wind_Speed_850mb
27 34 34 35 36 26 18 15 5 15 17 37 34 35 37 40 60 54 61 67 75 79 74 67 64 57 50 42 38 39 36 25 19 14 13 14 18 23 33 31 25 20 19 13
29 36 36 40 35 27 30 22 22 35 38 35 40 48 18 55 67 65 66 69 75 79 73 70 64 57 54 45 44 39 39 28 20 15 20 20 20 20 32 24 30 26 21 17
13 23 11 12 27 32 12 15 7 14 13 28 26 19 23 48 69 72 73 74 81 82 74 69 62 54 57 50 43 38 39 33 23 21 21 21 18 19 25 28 33 28 24 19
12 15 9 3 20 16 4 20 26 23 36 37 15 20 39 24 47 64 72 73 82 81 72 66 59 54 54 52 45 38 41 31 22 21 22 25 17 18 25 29 30 27 24 20
7 6 8 7 12 11 13 11 9 21 33 13 23 22 35 21 41 48 80 85 81 76 69 68 63 58 55 56 50 39 40 29 21 24 28 27 20 17 23 24 24 23 23 21
5 9 5 4 27 27 26 13 8 31 10 15 22 4 8 29 30 49 74 77 78 74 71 71 68 62 57 60 50 44 39 33 26 26 27 24 20 19 21 23 22 22 23 23
20 11 5 23 43 63 12 12 46 39 40 21 16 13 14 4 19 68 82 78 74 78 79 75 70 65 59 60 50 42 40 34 32 26 24 19 21 21 22 23 25 25 28 30
5 10 6 44 32 15 18 40 37 50 37 35 35 22 11 9 11 53 79 80 81 83 82 76 70 67 58 57 39 47 44 36 38 32 27 20 16 23 21 21 25 31 32 34
5 4 17 15 22 36 40 35 46 50 28 45 46 39 27 13 26 41 69 76 80 83 82 79 70 65 56 47 45 52 50 41 45 39 30 21 17 24 23 21 27 33 37 39
8 12 18 21 35 45 55 50 48 39 22 55 33 41 45 55 38 46 48 54 69 78 79 78 72 64 43 47 52 52 55 44 49 38 32 18 24 21 21 16 19 29 47 45
5 9 27 11 50 53 56 48 58 64 57 60 34 50 56 58 54 46 23 15 28 63 74 74 72 63 48 51 57 52 59 50 49 42 31 23 28 24 21 10 2 5 30 48
7 23 17 32 46 54 56 60 61 68 65 61 42 49 53 58 56 47 34 27 23 34 63 69 71 65 55 57 60 55 66 59 53 45 35 26 32 31 23 16 9 3 10 19
12 38 35 46 40 44 45 54 60 65 50 39 44 42 46 58 51 30 39 25 20 27 52 63 66 70 61 63 61 61 68 63 57 49 37 34 40 34 25 16 23 20 13 17
31 37 25 25 33 40 40 48 57 42 45 49 42 41 45 56 49 26 28 31 16 12 31 71 65 72 69 68 65 66 65 61 58 52 41 37 44 37 27 29 28 31 24 24
42 33 30 35 35 27 29 39 44 35 41 44 42 41 47 54 48 40 21 22 17 28 20 54 70 69 73 73 71 68 66 63 60 54 45 36 39 42 36 33 30 30 32 33
42 33 21 25 26 24 21 29 40 37 37 35 30 33 39 43 39 38 36 30 21 13 25 57 68 68 76 77 71 66 67 66 61 56 50 41 44 49 46 43 38 38 41 39
35 32 35 32 23 21 20 31 32 34 31 24 24 26 30 36 34 45 37 30 37 33 13 36 73 76 71 74 68 71 68 68 64 61 54 47 50 51 49 50 48 48 46 46
34 32 29 26 21 21 23 31 34 35 23 17 14 17 23 31 29 37 34 34 47 49 39 25 37 65 74 81 78 74 69 67 70 67 59 53 54 56 55 52 53 52 50 50
27 41 37 31 19 16 22 29 28 23 22 9 16 17 22 21 22 40 41 42 50 55 48 33 25 40 64 79 82 79 74 69 70 68 65 58 56 61 65 65 62 56 54 56
26 34 29 31 31 26 26 31 32 30 25 18 15 29 31 28 34 46 53 56 48 42 35 33 27 26 15 33 56 72 77 72 71 71 67 65 64 65 66 69 68 68 62 63
27 31 38 37 33 29 28 28 27 35 35 32 33 47 48 45 46 35 40 50 47 37 36 33 39 30 24 20 17 24 40 64 74 77 70 64 67 68 66 64 67 71 74 73
26 26 28 30 43 36 23 19 22 25 27 32 29 30 37 39 41 45 46 47 40 35 35 37 42 43 28 21 23 19 20 11 42 57 61 66 71 69 76 72 69 71 77 77
18 20 26 30 39 31 33 36 20 23 25 25 24 25 27 27 29 17 25 36 35 35 33 31 31 33 41 40 35 25 18 21 26 25 20 50 70 73 74 75 81 77 71 80
10 13 23 26 34 40 37 39 39 37 30 22 19 18 16 11 14 19 18 18 21 26 31 33 24 22 26 34 33 31 33 34 30 28 23 22 16 17 53 68 59 65 78 85
13 15 17 21 32 41 45 38 44 50 49 44 36 26 21 16 13 12 12 10 9 12 20 24 23 23 25 30 30 30 32 33 30 25 22 20 15 12 10 8 5 9 26 49
13 13 17 24 30 31 38 40 47 47 51 57 55 50 43 35 27 20 18 16 13 12 14 16 21 25 28 28 29 30 31 33 35 35 31 25 21 15 12 7 4 4 3 3
29 22 20 23 27 27 35 36 43 47 50 56 61 61 62 59 54 49 44 41 38 35 33 31 29 26 29 29 32 33 34 37 39 39 38 36 32 29 25 22 21 20 18 21
Wind_Direction_850mb
257 267 273 266 263 246 237 250 249 275 293 273 284 262 270 219 165 155 152 156 162 167 169 167 167 167 169 168 168 172 174 179 192 207 194 178 180 179 178 187 186 175 178 181
275 270 259 245 244 235 237 235 250 256 274 282 267 298 229 178 163 162 161 162 165 170 170 170 168 169 172 173 172 175 185 179 190 194 169 158 165 175 183 185 178 187 192 202
271 336 331 221 236 223 197 181 206 240 237 298 312 357 324 176 166 161 164 164 169 172 173 173 171 168 175 177 176 181 189 185 194 183 173 164 170 181 189 190 185 192 203 216
278 266 235 196 40 63 304 227 213 238 253 262 263 37 329 157 172 164 161 165 173 174 176 175 174 172 173 177 181 184 187 186 187 186 184 173 175 183 188 195 201 207 217 221
257 309 280 268 41 360 356 288 330 299 258 215 55 24 328 5 168 178 170 173 177 178 177 176 176 173 175 180 182 186 183 186 186 195 194 184 190 190 191 191 198 199 193 198
289 285 284 326 330 305 298 246 351 334 20 105 67 78 276 332 164 183 178 178 179 181 181 177 178 176 178 181 185 186 187 187 182 186 190 189 190 192 189 186 190 176 171 165
243 254 209 355 316 286 192 358 322 323 307 85 75 263 261 309 94 181 183 182 184 183 182 180 179 181 181 183 188 190 192 191 189 179 174 173 186 188 180 177 186 178 172 160
245 232 302 359 347 49 322 325 324 324 337 42 49 33 181 136 62 180 182 183 184 183 183 181 181 183 183 185 188 188 193 195 189 179 173 174 192 188 190 193 193 185 177 172
7 291 279 319 345 330 334 349 329 317 352 58 39 31 61 85 74 155 176 177 183 186 182 181 183 187 183 184 183 192 193 195 191 187 182 184 192 183 183 189 190 191 192 183
203 216 336 324 337 341 341 334 319 318 33 64 15 46 47 55 85 120 135 163 180 184 183 183 187 188 187 178 186 192 192 194 190 188 183 180 181 184 181 177 195 198 190 191
259 289 328 260 329 335 320 324 337 352 20 47 36 41 44 42 56 81 138 149 168 190 188 190 190 191 185 178 190 195 195 197 192 190 188 187 188 188 190 189 210 146 184 188
286 325 312 301 316 321 322 338 346 338 2 37 42 37 35 37 43 51 70 73 163 193 200 197 196 194 188 184 192 198 196 198 197 194 193 196 191 188 193 205 216 210 160 180
294 322 305 300 305 303 330 330 328 337 6 26 50 41 34 34 30 56 55 65 119 191 204 205 202 199 194 189 195 200 201 202 200 200 202 195 189 191 198 216 225 215 155 159
336 328 313 323 321 327 330 321 328 349 20 42 36 35 40 37 39 58 16 35 104 144 210 205 207 204 199 195 199 203 206 211 208 207 209 206 203 200 207 191 182 181 169 165
335 323 308 320 319 318 318 325 345 359 20 31 32 32 28 28 38 39 35 47 80 154 198 209 210 212 204 200 200 204 208 213 215 214 214 215 206 206 208 207 207 193 182 177
338 339 333 308 296 304 310 326 345 356 12 25 27 30 21 21 32 35 47 60 85 93 176 203 216 213 209 205 204 208 212 216 218 217 214 212 210 211 213 218 216 211 203 197
353 334 340 330 319 306 316 331 340 345 3 23 12 19 13 17 37 37 39 52 72 57 60 192 205 215 214 211 207 208 211 215 220 219 217 215 214 214 215 219 224 224 224 221
5 10 354 337 334 327 327 344 340 342 356 12 11 4 12 27 46 50 61 68 64 59 62 61 201 208 211 216 214 212 212 213 217 220 220 219 217 221 222 224 227 229 231 231
18 28 31 39 37 14 5 14 25 10 3 345 347 1 0 46 76 70 71 63 53 43 51 53 80 178 203 212 214 216 219 218 218 221 224 224 224 225 230 230 233 234 236 238
37 25 39 38 46 54 63 59 61 63 57 68 72 74 68 71 99 80 71 67 61 50 45 37 54 80 109 208 212 217 222 224 225 226 225 227 227 229 231 236 238 239 241 241
48 47 45 43 36 32 28 48 61 71 68 75 83 81 81 87 85 84 70 64 58 52 50 49 54 62 82 95 150 198 221 230 228 228 231 234 236 236 237 236 241 243 245 247
51 52 65 51 35 51 45 35 48 57 63 71 71 75 82 80 78 72 63 59 54 48 49 57 58 64 84 116 116 134 112 144 228 238 241 243 245 245 240 239 240 243 247 250
62 53 80 65 61 59 57 53 53 54 59 55 55 53 55 57 52 54 47 51 48 48 48 52 51 65 77 99 105 126 129 107 104 120 198 235 245 251 253 253 250 251 254 256
80 81 88 81 58 55 65 60 61 58 60 61 52 40 51 57 47 47 46 38 43 40 46 52 53 51 66 73 72 66 63 74 79 81 94 102 130 204 241 251 256 260 260 262
112 93 79 63 62 57 58 64 64 61 64 67 64 56 42 33 30 20 19 29 25 34 45 56 57 55 53 50 50 50 46 44 43 41 47 55 63 78 83 91 105 254 266 260
127 129 90 68 57 59 54 54 61 61 66 67 66 62 60 61 59 57 56 58 53 51 48 45 47 41 42 40 38 35 31 28 24 22 19 13 6 357 9 358 295 309 62 82
159 161 125 92 64 59 58 61 60 65 70 72 71 68 70 70 69 68 68 67 65 63 60 56 51 45 39 33 30 25 17 12 6 5 3 2 360 355 344 334 326 321 313 301